Weather in Lensk

Russia / Perm Krai     57°17′55″N   56°39′26″E
temp.,
°C
wind,
m/s
gust,
m/s
humid.,
%
clouds,
%
prec.,
mm/h
press.,
hPa
HPBL,
m
27 february, sat
sat2723:00−19sse4793100 0.0 1020121
02:00−20se478835 0.0 101797
05:00−19se599051 0.0 1015147
08:00−19ese51187100 0.0 1012222
11:00−17ese61085100 0.0 1010328
14:00−13ese61093100 0.2 1007478
17:00−12ese6992100 0.8 1008649
20:00−15ese61193100 0.3 1008471
28 february, sun
sun2823:00−17e51094100 0.6 1008442
02:00−17ene51093100 0.1 1007409
05:00−17ene51095100 0.3 1007422
08:00−16ene61194100 0.2 1007442
11:00−15ene61093100 0.6 1007568
14:00−13ne6992100 0.3 1007608
17:00−13ne6993100 0.8 1009549
20:00−16ne61094100 0.3 1011410
1 march, mon
mon123:00−18ne599499 0.4 1014347
02:00−21nne469790 0.0 1015108
05:00−22nne469689 0.0 101794
08:00−24nne359683 0.0 101879
11:00−20ne359366 0.0 1019236
14:00−16nne348650 0.0 1019389
17:00−14nne238975 0.0 1019316
20:00−19nw119647 0.0 102020
2 march, tue
tue223:00−20ssw229736 0.0 102020
02:00−21ssw239821 0.0 101820
05:00−22ssw349713 0.0 101745
08:00−22ssw489816 0.0 1015127
11:00−18ssw6109558 0.0 1013340
14:00−15ssw71191100 0.0 1011487
17:00−13s61287100 0.0 1009535
20:00−14s61293100 0.1 1007503
3 march, wed
wed323:00−14ssw51193100 0.4 1007515
02:00−15s51094100 0.4 1005476
05:00−15s4895100 0.9 1005415
08:00−16s3796100 0.4 1004309
11:00−13s3493100 0.8 1004331
14:00−11sse2288100 0.4 1003389
17:00−10nne1190100 0.6 1003209
20:00−12n229598 0.1 100334